Simultaneous Nadir Overpasses (SNOs) Predictions

Prediction of SNOs between AQUA and METOP-A Satellite Orbit:

Table of predicted SNOs for the next 14.0 days since TLE Epoch: 10/18/2019
Index Date (AQUA) Time (AQUA) Lat,Lon (AQUA) SZA (AQUA ) Date (METOP-A) Time (METOP-A) Lat,Lon (METOP-A) SZA (METOP-A ) Distance(km) Time Diff (sec)
1 10/21/2019 00:47:32 -75.50, -21.72 93.98 10/21/2019 00:46:33 -75.52, -21.78 93.95 2.99 59
2 10/21/2019 01:37:00 75.56, 145.74 86.10 10/21/2019 01:37:12 75.57, 145.70 86.11 1.33 12
3 10/21/2019 02:26:36 -76.04, -48.03 93.38 10/21/2019 02:27:43 -76.06, -45.40 93.42 70.60 67
4 10/23/2019 20:21:48 -75.56, 44.56 92.93 10/23/2019 20:20:57 -75.52, 44.58 92.96 3.73 51
5 10/23/2019 21:11:14 75.58,-147.86 87.11 10/23/2019 21:11:35 75.57,-147.94 87.11 2.26 21
6 10/26/2019 15:56:02 -75.57, 110.96 91.95 10/26/2019 15:55:19 -75.57, 111.09 91.94 3.53 43
7 10/26/2019 16:45:29 75.60, -81.47 88.10 10/26/2019 16:45:58 75.62, -81.44 88.12 2.84 29
8 10/29/2019 11:30:17 -75.59, 177.34 90.98 10/29/2019 11:29:43 -75.57, 177.44 91.00 3.52 34
9 10/29/2019 12:19:44 75.62, -15.10 89.07 10/29/2019 12:20:22 75.62, -15.09 89.06 0.50 38
10 11/01/2019 07:04:31 -75.57,-116.16 90.09 11/01/2019 07:04:07 -75.57,-116.21 90.08 1.46 24
11 11/01/2019 07:53:59 75.65, 51.25 90.02 11/01/2019 07:54:46 75.61, 51.26 89.98 3.96 47




NCC Satellite Simultaneous Nadir Overpasses (SNOs) Prediction Service
